Regional Weather Roundup
Issued by NWS Green Bay, WI

Home | Current Version | Previous Version | Text Only | Print | Product List | Glossary On
Versions: 1 2 3 4 5 6 7 8 9 10 11 12 13 14 15 16 17 18 19 20 21 22 23 24 25 26 27 28 29 30 31 32 33 34 35 36 37 38 39 40 41 42 43 44 45 46 47 48 49 50
000
ASUS43 KGRB 251311
RWRGRB

NORTH-CENTRAL AND NORTHEAST WISCONSIN REGIONAL WEATHER ROUNDUP
NATIONAL WEATHER SERVICE GREEN BAY WI
800 AM CDT SAT MAR 25 2017

WIZ005-009-010>012-018-019-251400-
NORTH CENTRAL WISCONSIN

CITY           SKY/WX    TMP DP  RH WIND       PRES   REMARKS
IRONWOOD       CLOUDY    32  30  92 NE8       30.28R
MANITOWISH WTR LGT SNOW  31  31 100 E5        30.23F
ARBOR VITAE    CLOUDY    34  32  92 E6        30.22F
EAGLE RIVER    CLOUDY    32  31  98 E9        30.24F
LAND O LAKES   CLOUDY    32  32  99 E8        30.27S
RHINELANDER    CLOUDY    34  30  85 E9        30.22F
PHILLIPS       CLOUDY    32  31  95 E8        30.21F
ANTIGO         CLOUDY    32  30  93 E17       30.20S
TOMAHAWK       CLOUDY    32  28  86 E8        30.21F
MERRILL        CLOUDY    34  30  86 E12       30.21S
$$

WIZ013-073-251400-
NORTHEAST WISCONSIN

CITY           SKY/WX    TMP DP  RH WIND       PRES   REMARKS
IRON MOUNTAIN  CLOUDY    33  28  81 NE7       30.27R
MARINETTE        N/A    N/A N/A N/A MISG        N/A
OCONTO         CLOUDY    34  32  91 E9        30.25R
$$

WIZ017-030-035>037-045-251400-
CENTRAL WISCONSIN

CITY           SKY/WX    TMP DP  RH WIND       PRES   REMARKS
MEDFORD        CLOUDY    32  29  90 E14G22    30.16F
WAUSAU         CLOUDY    34  30  85 E9G18     30.18F
MOSINEE        CLOUDY    34  32  93 E15G23    30.18F
MARSHFIELD     CLOUDY    34  30  85 E20G29    30.16S
WISC RAPIDS    CLOUDY    35  32  88 NE15G23   30.18R
STEVENS POINT  CLOUDY    33  31  94 NE17      30.18F
WAUPACA        CLOUDY    37  33  87 NE8       30.20R
SHAWANO        CLOUDY    37  33  85 E12       30.24R
CLINTONVILLE   CLOUDY    34  32  93 NE14G20   30.22R
WAUTOMA        CLOUDY    35  33  92 NE14      30.17R
$$

WIZ038-039-048-051-251400-
FOX VALLEY

CITY           SKY/WX    TMP DP  RH WIND       PRES   REMARKS
NWS GREEN BAY  CLOUDY    35  34  96 NE21G30   30.22R
APPLETON       CLOUDY    34  34 100 NE17G25   30.17R
OSHKOSH        CLOUDY    35  33  92 NE13      30.17R FOG
FOND DU LAC    CLOUDY    37  33  85 NE15      30.16S
$$

WIZ022-050-052-251400-
EAST CENTRAL WISCONSIN

CITY           SKY/WX    TMP DP  RH WIND       PRES   REMARKS
EPHRAIM        CLOUDY    34  33  98 NE12G17   30.25S
WASHINGTON ISL CLOUDY    34  32  92 NE10G17   30.28S
STURGEON BAY   CLOUDY    35  32  88 NE12      30.25R
MANITOWOC      CLOUDY    37  34  89 NE12G20   30.22R
SHEBOYGAN      CLOUDY    36  34  92 NE21      30.17S FOG
$$

LMZ563-521-522-541>543-251400-
LAKESHORE

STATION/POSITION TIME  TEMP    WIND        PRES    VSBY  WAVE
                       AIR SEA DIR/SP/G                  HT/PER
                 (UTC) (F)     (DEG/KT/KT) (MB)    (MI)  (FT/S)
SHEBOYGAN LKSHOR 1300   36      40/ 19/ 21 1022.3R
KEWAUNEE LKSHORE 1248   36      50/ 13/ 17 1023.0R
NORTHPORT PIER   1240   35      50/ 12/ 16 1025.4R
SISTER BAY LKSHO 1150   35      30/  6/ 12   N/A
CHAMBERS ISLAND  1240   33      20/ 12/ 14 1024.4S
MENOMINEE LKSHOR 1248   33      20/ 17/ 19 1023.7F
$$




USA.gov is the U.S. government's official web portal to all federal, state and local government web resources and services.